SAS1642 EKCH-EVRA

Flight info

Callsign SAS1642
Flight time 1h 1m
Altitude 37000
Route KEMAX Z490 KOTAM DCT VEDEN DCT ORVIX
Aircraft A20N/M-SDE2E3FGHIRWXY/LB1

Departure

Time 2026-05-04 10:54
Airport Copenhagen Kastrup Airport (EKCH)

Arrival

Time 2026-05-04 11:55
Airport Riga International Airport (EVRA)
Time Latitude Longitude Altitude Speed Heading
2026-05-04 10:25 55.62648 12.64555 24 ft 0 kts 281°
2026-05-04 10:45 55.62648 12.64556 23 ft 2 kts 281°
2026-05-04 10:45 55.62645 12.64599 27 ft 4 kts 270°
2026-05-04 10:46 55.62648 12.64645 27 ft 4 kts 242°
2026-05-04 10:46 55.62662 12.64672 27 ft 3 kts 191°
2026-05-04 10:46 55.62647 12.64666 26 ft 4 kts 192°
2026-05-04 10:46 55.62620 12.64657 26 ft 4 kts 189°
2026-05-04 10:47 55.62593 12.64652 24 ft 4 kts 183°
2026-05-04 10:47 55.62573 12.64652 26 ft 4 kts 180°
2026-05-04 10:47 55.62545 12.64653 23 ft 4 kts 179°
2026-05-04 10:47 55.62531 12.64653 24 ft 1 kts 179°
2026-05-04 10:50 55.62528 12.64653 25 ft 2 kts 179°
2026-05-04 10:51 55.61970 12.64152 23 ft 19 kts 205°
2026-05-04 10:52 55.61868 12.64073 24 ft 14 kts 193°
2026-05-04 10:52 55.61782 12.64078 26 ft 8 kts 175°
2026-05-04 10:52 55.61712 12.64089 25 ft 12 kts 175°
2026-05-04 10:54 55.60185 12.61856 108 ft 159 kts 223°
2026-05-04 10:54 55.59364 12.60620 746 ft 154 kts 223°
2026-05-04 10:56 55.50653 12.52360 5039 ft 253 kts 201°
2026-05-04 10:56 55.48956 12.51479 6033 ft 260 kts 191°
2026-05-04 10:56 55.47133 12.51789 6985 ft 272 kts 165°
2026-05-04 10:57 55.45508 12.53585 7956 ft 285 kts 139°
2026-05-04 10:57 55.44425 12.56575 8890 ft 299 kts 114°
2026-05-04 10:57 55.44118 12.60255 9780 ft 313 kts 89°
2026-05-04 10:57 55.44637 12.64019 10548 ft 322 kts 65°
2026-05-04 10:58 55.45928 12.67244 11339 ft 326 kts 41°
2026-05-04 10:58 55.47724 12.69612 12042 ft 334 kts 31°
2026-05-04 10:58 55.49742 12.71930 12317 ft 358 kts 30°
2026-05-04 10:58 55.51900 12.74352 12669 ft 376 kts 30°
2026-05-04 10:59 55.54126 12.76866 13437 ft 382 kts 30°
2026-05-04 10:59 55.56371 12.79428 14199 ft 386 kts 30°
2026-05-04 10:59 55.58634 12.82027 14948 ft 389 kts 31°
2026-05-04 10:59 55.60914 12.84657 15686 ft 393 kts 31°
2026-05-04 11:00 55.63215 12.87317 16424 ft 397 kts 31°
2026-05-04 11:01 55.79873 13.06685 20973 ft 421 kts 31°
2026-05-04 11:02 55.82332 13.09560 21562 ft 425 kts 31°
2026-05-04 11:02 55.84810 13.12462 22137 ft 429 kts 31°
2026-05-04 11:05 56.13551 13.65985 28448 ft 474 kts 97°
2026-05-04 11:06 56.13281 13.71901 28820 ft 477 kts 96°
2026-05-04 11:06 56.13095 13.77852 29171 ft 480 kts 94°
2026-05-04 11:06 56.13017 13.83858 29519 ft 483 kts 92°
2026-05-04 11:06 56.13009 13.89907 29868 ft 486 kts 92°
2026-05-04 11:08 56.13222 14.32954 32184 ft 498 kts 91°
2026-05-04 11:10 56.13282 14.76338 34635 ft 494 kts 91°
2026-05-04 11:12 56.17280 15.18555 36619 ft 488 kts 78°
2026-05-04 11:12 56.17956 15.24536 36819 ft 488 kts 79°
2026-05-04 11:12 56.19290 15.36432 36832 ft 486 kts 79°
2026-05-04 11:13 56.20613 15.48347 36834 ft 486 kts 79°
2026-05-04 11:13 56.21924 15.60262 36831 ft 487 kts 79°
2026-05-04 11:14 56.23225 15.72199 36827 ft 487 kts 79°
2026-05-04 11:16 56.28323 16.20125 36820 ft 489 kts 79°
2026-05-04 11:16 56.29572 16.32154 36822 ft 489 kts 79°
2026-05-04 11:17 56.30809 16.44196 36825 ft 489 kts 79°
2026-05-04 11:19 56.35644 16.92465 36823 ft 489 kts 80°
2026-05-04 11:19 56.36824 17.04565 36818 ft 489 kts 80°
2026-05-04 11:20 56.37984 17.16573 36810 ft 489 kts 80°
2026-05-04 11:20 56.39147 17.28755 36814 ft 489 kts 80°
2026-05-04 11:22 56.43692 17.77550 36815 ft 498 kts 82°
2026-05-04 11:23 56.44810 17.89916 36823 ft 499 kts 82°
2026-05-04 11:25 56.48622 18.33283 36825 ft 499 kts 83°
2026-05-04 11:25 56.49683 18.45700 36826 ft 499 kts 83°
2026-05-04 11:27 56.54721 19.01482 36824 ft 499 kts 78°
2026-05-04 11:28 56.56275 19.13756 36827 ft 499 kts 78°
2026-05-04 11:28 56.57756 19.26031 36827 ft 498 kts 79°
2026-05-04 11:29 56.59199 19.38328 36828 ft 498 kts 79°
2026-05-04 11:29 56.60623 19.50613 36824 ft 497 kts 79°
2026-05-04 11:33 56.70233 20.36576 35242 ft 500 kts 81°
2026-05-04 11:33 56.70902 20.42788 34641 ft 503 kts 81°
2026-05-04 11:33 56.71577 20.49075 33801 ft 509 kts 81°
2026-05-04 11:34 56.72256 20.55438 32891 ft 512 kts 81°
2026-05-04 11:34 56.72932 20.61789 32139 ft 511 kts 81°
2026-05-04 11:34 56.73604 20.68147 31341 ft 511 kts 82°
2026-05-04 11:34 56.74270 20.74476 30756 ft 506 kts 82°
2026-05-04 11:35 56.74928 20.80756 30188 ft 502 kts 82°
2026-05-04 11:35 56.75575 20.86975 29563 ft 497 kts 82°
2026-05-04 11:35 56.76211 20.93117 28994 ft 491 kts 82°
2026-05-04 11:35 56.76838 20.99210 28420 ft 485 kts 82°
2026-05-04 11:36 56.77453 21.05220 27866 ft 480 kts 82°
2026-05-04 11:36 56.78058 21.11161 27307 ft 475 kts 82°
2026-05-04 11:36 56.78655 21.17052 26757 ft 470 kts 82°
2026-05-04 11:36 56.79244 21.22893 26203 ft 466 kts 82°
2026-05-04 11:37 56.79825 21.28677 25656 ft 462 kts 82°
2026-05-04 11:37 56.80398 21.34422 25110 ft 458 kts 82°
2026-05-04 11:37 56.80965 21.40125 24552 ft 455 kts 82°
2026-05-04 11:37 56.81524 21.45780 24022 ft 452 kts 82°
2026-05-04 11:38 56.82079 21.51418 23467 ft 450 kts 82°
2026-05-04 11:38 56.82627 21.57021 22896 ft 446 kts 82°
2026-05-04 11:38 56.83168 21.62569 22356 ft 441 kts 82°
2026-05-04 11:38 56.83700 21.68057 21824 ft 437 kts 82°
2026-05-04 11:39 56.84223 21.73483 21284 ft 432 kts 82°
2026-05-04 11:39 56.84734 21.78799 20769 ft 429 kts 82°
2026-05-04 11:40 56.87714 22.10351 17608 ft 412 kts 82°
2026-05-04 11:41 56.88194 22.15499 17073 ft 408 kts 82°
2026-05-04 11:41 56.88665 22.20589 16578 ft 405 kts 82°
2026-05-04 11:41 56.89132 22.25642 16067 ft 401 kts 82°
2026-05-04 11:41 56.89444 22.29030 15724 ft 399 kts 82°
2026-05-04 11:42 56.89903 22.34025 15216 ft 397 kts 83°
2026-05-04 11:42 56.90407 22.38981 14721 ft 395 kts 77°
2026-05-04 11:42 56.91173 22.43788 14212 ft 393 kts 74°
2026-05-04 11:42 56.91978 22.48562 13721 ft 391 kts 74°
2026-05-04 11:43 56.92782 22.53316 13182 ft 389 kts 74°
2026-05-04 11:43 56.93571 22.58025 12701 ft 386 kts 75°
2026-05-04 11:43 56.94346 22.62705 12213 ft 382 kts 75°
2026-05-04 11:43 56.95111 22.67353 11726 ft 379 kts 75°
2026-05-04 11:44 56.95865 22.71961 11254 ft 377 kts 75°
2026-05-04 11:44 56.96613 22.76551 10783 ft 374 kts 75°
2026-05-04 11:44 56.97355 22.81110 10311 ft 372 kts 76°
2026-05-04 11:44 56.98082 22.85590 10102 ft 361 kts 76°
2026-05-04 11:45 56.98784 22.89928 9969 ft 348 kts 76°
2026-05-04 11:45 56.99461 22.94118 9762 ft 340 kts 76°
2026-05-04 11:45 57.00122 22.98232 9544 ft 331 kts 76°
2026-05-04 11:45 57.00761 23.02256 9281 ft 326 kts 79°
2026-05-04 11:46 57.01063 23.06279 9124 ft 313 kts 95°
2026-05-04 11:46 57.00906 23.10231 8777 ft 309 kts 102°
2026-05-04 11:46 57.00677 23.14139 8433 ft 308 kts 102°
2026-05-04 11:46 57.00461 23.17985 8090 ft 306 kts 102°
2026-05-04 11:47 57.00247 23.21849 7747 ft 303 kts 102°
2026-05-04 11:47 57.00035 23.25679 7411 ft 301 kts 102°
2026-05-04 11:47 56.99820 23.29506 7067 ft 302 kts 102°
2026-05-04 11:47 56.99606 23.33311 6782 ft 297 kts 102°
2026-05-04 11:48 56.99499 23.37025 6646 ft 290 kts 95°
2026-05-04 11:48 56.99528 23.40724 6456 ft 293 kts 95°
2026-05-04 11:48 56.99550 23.43738 6321 ft 295 kts 94°
2026-05-04 11:48 56.99575 23.47493 6033 ft 294 kts 94°
2026-05-04 11:49 56.99599 23.51230 5737 ft 292 kts 94°
2026-05-04 11:49 56.99621 23.54932 5452 ft 289 kts 94°
2026-05-04 11:49 56.99640 23.58604 5165 ft 288 kts 94°
2026-05-04 11:49 56.99658 23.62234 5010 ft 282 kts 94°
2026-05-04 11:50 56.99689 23.65758 4974 ft 269 kts 90°
2026-05-04 11:50 57.00038 23.69060 4869 ft 260 kts 77°
2026-05-04 11:50 57.00518 23.72228 4627 ft 256 kts 77°
2026-05-04 11:50 57.00972 23.75302 4481 ft 242 kts 78°
2026-05-04 11:51 57.01397 23.78228 4240 ft 232 kts 77°
2026-05-04 11:51 57.01807 23.81055 3957 ft 228 kts 78°
2026-05-04 11:51 57.02211 23.83857 3602 ft 226 kts 77°
2026-05-04 11:51 57.02613 23.86637 3257 ft 225 kts 77°
2026-05-04 11:52 57.02966 23.89397 2891 ft 216 kts 88°
2026-05-04 11:52 57.02888 23.92020 2520 ft 198 kts 111°
2026-05-04 11:52 57.02399 23.94251 2189 ft 181 kts 130°
2026-05-04 11:52 57.01641 23.95963 1834 ft 167 kts 147°
2026-05-04 11:53 57.00719 23.97176 1493 ft 162 kts 161°
2026-05-04 11:53 56.99706 23.97892 1189 ft 151 kts 173°
2026-05-04 11:53 56.98710 23.98139 979 ft 140 kts 186°
2026-05-04 11:53 56.97779 23.98045 853 ft 132 kts 191°
2026-05-04 11:55 56.92093 23.97067 44 ft 55 kts 184°
2026-05-04 11:55 56.91824 23.97124 44 ft 24 kts 157°
2026-05-04 11:56 56.91723 23.97235 44 ft 12 kts 129°
2026-05-04 11:56 56.91719 23.97381 44 ft 12 kts 56°
2026-05-04 11:56 56.91805 23.97418 44 ft 14 kts
2026-05-04 11:56 56.91916 23.97434 42 ft 17 kts
2026-05-04 11:57 56.92043 23.97446 44 ft 17 kts
2026-05-04 11:57 56.92135 23.97487 44 ft 11 kts 52°
2026-05-04 11:57 56.92136 23.97626 42 ft 7 kts 95°
2026-05-04 11:57 56.92166 23.97657 44 ft 4 kts
2026-05-04 11:58 56.92196 23.97664 44 ft 2 kts
2026-05-04 11:58 56.92198 23.97664 44 ft 0 kts